User: anonymous   Login
Location: Laterina
(43.5167°N, 11.7167°E)
Time: 12:48:30
(UTC+00:00)
Language:

Exosat Rocket - Orbit

View from above orbital plane
View from above orbital plane
View from above satellite
View from above satellite

Ground track
Ground track

The orbit data is extracted from the following two-line orbital elements,

1 14096U 83051B   20330.91641880 +.00000590 +00000-0 +10225-2 0  9998
2 14096 072.2972 192.4596 1095247 343.2279 013.5037 12.09731226655777
Epoch (UTC): 25 November 2020 21:59:38
Eccentricity: 0.1095247
inclination: 72.2972°
perigee height: 759 km
apogee height: 2515 km
right ascension of ascending node: 192.4596°
argument of perigee: 343.2279°
revolutions per day: 12.09731226
mean anomaly at epoch: 13.5037°
orbit number at epoch: 65577

The dashed part of the orbit path shows where the satellite is in the earth's shadow,  

DLR